Location: Unspecified
(35.7250°N, 0.0000°E)
Time: 23:13:36
(UTC+00:00)

Tiros 1 despin weight - Visible Passes

Search period start: 17 June 2019 00:00
Search period end: 27 June 2019 00:00
Orbit: 595 x 642 km, 48.2° (Epoch: 17 June)

Date Brightness Start Highest point End Pass type
(mag) Time Alt. Az. Time Alt. Az. Time Alt. Az.
17 Jun ? 00:10:24 12° ENE 00:10:24 12° ENE 00:10:44 10° ENE visible
17 Jun ? 01:47:26 32° NW 01:48:08 34° NNW 01:52:11 10° NE visible
17 Jun ? 03:27:49 10° NW 03:30:41 17° N 03:33:33 10° NE visible
18 Jun ? 00:25:47 23° NE 00:25:47 23° NE 00:27:30 10° NE visible
18 Jun ? 02:02:48 16° WNW 02:05:05 23° NNW 02:08:39 10° NE visible
18 Jun ? 03:45:05 10° NW 03:47:50 16° N 03:50:36 10° NE visible
19 Jun ? 00:41:06 35° NNE 00:41:06 35° NNE 00:44:02 10° NE visible
19 Jun ? 02:19:04 10° NW 02:22:08 18° N 02:25:13 10° NNE visible
19 Jun ? 04:01:57 10° NNW 04:04:59 18° N 04:08:02 10° NE visible
20 Jun ? 00:56:19 28° NNW 00:56:38 29° NNW 01:00:29 10° NE visible
20 Jun ? 02:36:31 10° NW 02:39:17 16° N 02:42:03 10° NE visible
20 Jun ? 23:34:24 20° NE 23:34:24 20° NE 23:35:52 10° NE visible
21 Jun ? 01:11:24 15° NW 01:13:37 21° NNW 01:16:58 10° NE visible
21 Jun ? 02:53:36 10° NW 02:56:26 16° N 02:59:16 10° NE visible
21 Jun ? 23:49:18 32° N 23:49:18 32° N 23:52:21 10° NE visible
22 Jun ? 01:27:48 10° NW 01:30:43 17° N 01:33:38 10° NE visible
22 Jun ? 03:10:19 10° NNW 03:13:33 19° NNE 03:16:47 10° ENE visible
22 Jun ? 22:26:49 15° NE 22:26:49 15° NE 22:27:38 10° NE visible
23 Jun ? 00:03:46 21° NW 00:05:08 25° NNW 00:08:48 10° NE visible
23 Jun ? 01:45:07 10° NW 01:47:53 16° N 01:50:37 10° NE visible
23 Jun ? 03:26:50 10° NW 03:30:34 26° NNE 03:34:19 10° E visible
23 Jun?21:03:17ENE21:03:17ENE20:53:45SSWvisible
23 Jun ? 22:40:03 50° NNW 22:40:03 50° NNW 22:44:12 10° NE visible
24 Jun ? 00:19:01 10° WNW 00:22:11 19° NNW 00:25:20 10° NNE visible
24 Jun ? 02:02:02 10° NNW 02:05:01 17° N 02:08:00 10° NE visible
24 Jun ? 03:43:17 10° NW 03:47:27 41° NNE 03:51:39 10° E visible
24 Jun ? 21:10:33 10° SW 21:14:57 57° SE 21:19:20 10° ENE visible
24 Jun ? 22:52:43 10° W 22:56:42 31° NNW 23:00:40 10° NE visible
25 Jun ? 00:36:30 10° NW 00:39:19 16° N 00:42:07 10° NE visible
25 Jun ? 02:18:39 10° NW 02:22:06 22° NNE 02:25:33 10° ENE visible
25 Jun ? 03:59:47 10° NW 04:04:12 74° NE 04:08:37 10° ESE visible
25 Jun ? 19:47:20 10° S 19:50:23 18° SE 19:53:26 10° E visible
25 Jun ? 21:27:04 10° WSW 21:31:33 73° NW 21:36:01 10° NE visible
25 Jun ? 23:10:12 10° WNW 23:13:40 22° NNW 23:17:07 10° NE visible
26 Jun ? 00:53:39 10° NW 00:56:28 16° N 00:59:16 10° NE visible
26 Jun ? 02:35:07 10° NW 02:39:04 31° NNE 02:43:01 10° E visible
26 Jun ? 04:16:29 10° WNW 04:20:47 55° SW 04:25:06 10° SE visible
26 Jun ? 20:02:36 10° SSW 20:06:46 37° SE 20:10:55 10° ENE visible
26 Jun ? 21:44:03 10° W 21:48:18 40° NNW 21:52:31 10° NE visible
26 Jun ? 23:27:45 10° NW 23:30:45 17° N 23:33:45 10° NE visible
